�������l�o���
Date,Time,MP-1(��Sv/h),MP-2(��Sv/h),MP-3(��Sv/h),MP-4(��Sv/h),MP-5(��Sv/h),MP-6(��Sv/h),MP-7(��Sv/h),MP-8(��Sv/h),����,����(m/s),���J
2020/10/01,00:00,0.665,0.953,0.606,1.166,0.836,0.386,0.672,0.633,�k��,2.3,��
2020/10/01,00:10,0.666,0.953,0.607,1.167,0.835,0.386,0.669,0.634,�k��,2.6,��
2020/10/01,00:20,0.667,0.954,0.605,1.169,0.836,0.386,0.672,0.634,���k��,2.5,��
2020/10/01,00:30,0.666,0.952,0.606,1.172,0.835,0.386,0.671,0.634,��,1.9,��
2020/10/01,00:40,0.667,0.952,0.607,1.168,0.835,0.387,0.671,0.634,���k��,2.0,��
2020/10/01,00:50,0.669,0.951,0.607,1.168,0.835,0.385,0.670,0.635,���k��,1.9,��
2020/10/01,01:00,0.666,0.950,0.609,1.168,0.836,0.386,0.671,0.636,��,1.2,��
2020/10/01,01:10,0.668,0.953,0.607,1.167,0.834,0.387,0.671,0.633,��,1.4,��
2020/10/01,01:20,0.667,0.950,0.607,1.167,0.835,0.388,0.670,0.633,��,1.5,��
2020/10/01,01:30,0.665,0.951,0.606,1.168,0.835,0.387,0.670,0.634,��,1.7,��
2020/10/01,01:40,0.667,0.952,0.606,1.166,0.834,0.387,0.668,0.634,���쐼,1.7,�L
2020/10/01,01:50,0.669,0.952,0.607,1.168,0.835,0.386,0.670,0.633,���쐼,1.7,��
2020/10/01,02:00,0.668,0.950,0.609,1.167,0.834,0.388,0.671,0.632,���쐼,1.5,��
2020/10/01,02:10,0.668,0.953,0.606,1.168,0.835,0.387,0.671,0.633,���쐼,1.7,�L
2020/10/01,02:20,0.668,0.951,0.609,1.168,0.836,0.386,0.671,0.633,��,0.6,�L
2020/10/01,02:30,0.666,0.951,0.608,1.168,0.834,0.385,0.671,0.634,��,2.0,��
2020/10/01,02:40,0.667,0.952,0.608,1.168,0.834,0.386,0.670,0.633,���쐼,1.5,��
2020/10/01,02:50,0.667,0.951,0.605,1.170,0.836,0.387,0.671,0.633,��,2.0,��
2020/10/01,03:00,0.666,0.952,0.608,1.167,0.834,0.385,0.669,0.632,��,1.5,��
2020/10/01,03:10,0.666,0.951,0.607,1.168,0.833,0.386,0.672,0.633,���k��,0.9,��
2020/10/01,03:20,0.666,0.950,0.606,1.169,0.835,0.386,0.672,0.634,�k��,0.9,��
2020/10/01,03:30,0.668,0.953,0.607,1.168,0.835,0.385,0.670,0.633,�k�k��,0.6,��
2020/10/01,03:40,0.665,0.952,0.609,1.167,0.835,0.386,0.671,0.633,-,CALM,��
2020/10/01,03:50,0.668,0.953,0.609,1.167,0.837,0.385,0.672,0.634,�k,1.4,��
2020/10/01,04:00,0.667,0.952,0.607,1.168,0.835,0.387,0.670,0.632,�k,1.4,��
2020/10/01,04:10,0.669,0.951,0.606,1.168,0.837,0.385,0.670,0.634,�k�k��,2.0,��
2020/10/01,04:20,0.667,0.953,0.608,1.168,0.835,0.386,0.672,0.633,�k�k��,2.9,��
2020/10/01,04:30,0.669,0.953,0.607,1.169,0.835,0.386,0.670,0.634,�k�k��,2.3,��
2020/10/01,04:40,0.666,0.952,0.607,1.166,0.835,0.386,0.671,0.632,�k�k��,2.9,��
2020/10/01,04:50,0.667,0.952,0.607,1.167,0.837,0.384,0.673,0.633,�k,3.1,��
2020/10/01,05:00,0.668,0.953,0.609,1.169,0.835,0.385,0.671,0.632,�k,3.3,��
2020/10/01,05:10,0.667,0.953,0.609,1.169,0.834,0.386,0.673,0.632,�k�k��,3.2,��
2020/10/01,05:20,0.669,0.953,0.606,1.164,0.836,0.387,0.673,0.633,�k�k��,4.2,��
2020/10/01,05:30,0.667,0.951,0.605,1.169,0.834,0.386,0.672,0.634,�k�k��,4.1,��
2020/10/01,05:40,0.668,0.952,0.606,1.167,0.836,0.387,0.672,0.635,�k�k��,3.6,��
2020/10/01,05:50,0.668,0.952,0.606,1.169,0.835,0.385,0.671,0.634,�k�k��,3.3,��
2020/10/01,06:00,0.669,0.951,0.607,1.170,0.836,0.387,0.671,0.633,�k�k��,3.4,��
2020/10/01,06:10,0.667,0.950,0.608,1.170,0.836,0.386,0.671,0.632,�k�k��,3.3,��
2020/10/01,06:20,0.666,0.951,0.606,1.168,0.835,0.385,0.673,0.632,�k,3.5,��
2020/10/01,06:30,0.669,0.949,0.607,1.169,0.834,0.386,0.671,0.633,�k,2.9,��
2020/10/01,06:40,0.666,0.952,0.607,1.168,0.837,0.386,0.672,0.634,�k,2.6,��
2020/10/01,06:50,0.667,0.951,0.605,1.168,0.836,0.386,0.670,0.632,�k�k��,3.0,��
2020/10/01,07:00,0.668,0.951,0.607,1.169,0.835,0.387,0.670,0.632,�k�k��,3.0,��
2020/10/01,07:10,0.667,0.952,0.607,1.167,0.836,0.386,0.671,0.634,�k�k��,3.1,��
2020/10/01,07:20,0.667,0.952,0.607,1.169,0.835,0.386,0.672,0.633,�k��,2.9,��
2020/10/01,07:30,0.667,0.951,0.609,1.168,0.837,0.387,0.671,0.632,�k��,3.0,��
2020/10/01,07:40,0.669,0.951,0.607,1.169,0.836,0.388,0.669,0.635,�k��,2.5,��
2020/10/01,07:50,0.668,0.953,0.606,1.168,0.834,0.385,0.670,0.635,�k��,2.6,��
2020/10/01,08:00,0.669,0.951,0.609,1.169,0.835,0.386,0.669,0.634,���k��,3.1,��
2020/10/01,08:10,0.668,0.952,0.608,1.167,0.836,0.385,0.671,0.632,�k��,2.4,��
2020/10/01,08:20,0.667,0.949,0.608,1.170,0.834,0.385,0.670,0.633,�k��,2.0,��
2020/10/01,08:30,0.667,0.948,0.607,1.170,0.834,0.387,0.671,0.632,�k��,2.0,��
2020/10/01,08:40,0.668,0.947,0.609,1.169,0.835,0.386,0.669,0.632,�k�k��,2.0,��
2020/10/01,08:50,0.666,0.948,0.610,1.169,0.835,0.387,0.670,0.632,�k��,1.6,��
2020/10/01,09:00,0.669,0.947,0.611,1.170,0.834,0.384,0.670,0.632,�k�k��,1.7,��
2020/10/01,09:10,0.666,0.944,0.611,1.170,0.834,0.384,0.669,0.632,�k�k��,1.9,��
2020/10/01,09:20,0.666,0.945,0.607,1.168,0.836,0.383,0.670,0.632,�k�k��,2.0,��
2020/10/01,09:30,0.666,0.944,0.610,1.169,0.834,0.383,0.670,0.633,�k�k��,2.0,��
2020/10/01,09:40,0.667,0.946,0.608,1.171,0.836,0.385,0.670,0.632,�k,1.4,��
2020/10/01,09:50,0.666,0.944,0.610,1.172,0.835,0.384,0.670,0.632,�k��,1.2,��
2020/10/01,10:00,0.666,0.946,0.608,1.169,0.835,0.386,0.672,0.631,�k��,1.5,��
2020/10/01,10:10,0.667,0.945,0.609,1.169,0.831,0.384,0.669,0.633,�k�k��,1.3,��
2020/10/01,10:20,0.667,0.946,0.609,1.171,0.832,0.384,0.671,0.632,���k��,1.4,��
2020/10/01,10:30,0.666,0.946,0.609,1.170,0.834,0.385,0.671,0.631,�k,1.4,��
2020/10/01,10:40,0.667,0.946,0.609,1.168,0.834,0.384,0.669,0.633,�k��,2.2,��
2020/10/01,10:50,0.666,0.946,0.609,1.167,0.836,0.384,0.669,0.633,�k�k��,1.0,��
2020/10/01,11:00,0.666,0.948,0.608,1.164,0.833,0.385,0.671,0.634,�k�k��,2.2,��
2020/10/01,11:10,0.665,0.949,0.610,1.168,0.835,0.384,0.671,0.633,�k�k��,2.6,��
2020/10/01,11:20,0.665,0.945,0.608,1.167,0.833,0.384,0.671,0.633,�k�k��,2.6,��
2020/10/01,11:30,0.665,0.947,0.607,1.169,0.834,0.385,0.671,0.633,�k�k��,2.8,��
2020/10/01,11:40,0.666,0.945,0.607,1.171,0.835,0.383,0.670,0.632,�k�k��,2.3,��
2020/10/01,11:50,0.663,0.947,0.605,1.169,0.834,0.384,0.669,0.632,�k�k��,2.5,��
2020/10/01,12:00,0.663,0.945,0.606,1.168,0.834,0.385,0.670,0.630,�k��,2.5,��
2020/10/01,12:10,0.666,0.943,0.608,1.167,0.833,0.384,0.671,0.632,�k��,2.3,��
2020/10/01,12:20,0.665,0.949,0.606,1.160,0.833,0.384,0.671,0.632,�k��,2.6,��
2020/10/01,12:30,0.664,0.949,0.606,1.157,0.833,0.383,0.671,0.631,�k��,2.5,��
2020/10/01,12:40,0.665,0.949,0.606,1.158,0.834,0.383,0.671,0.630,���k��,3.0,��
2020/10/01,12:50,0.663,0.948,0.604,1.157,0.830,0.383,0.670,0.631,���k��,3.3,�L
2020/10/01,13:00,0.664,0.948,0.604,1.161,0.832,0.384,0.671,0.630,���k��,2.6,�L
2020/10/01,13:10,0.664,0.948,0.606,1.158,0.831,0.382,0.670,0.630,��,2.2,�L
2020/10/01,13:20,0.664,0.946,0.604,1.158,0.833,0.382,0.672,0.631,��,2.0,��
2020/10/01,13:30,0.665,0.948,0.604,1.162,0.832,0.382,0.671,0.632,��,2.3,�L
2020/10/01,13:40,0.664,0.946,0.605,1.160,0.833,0.384,0.671,0.630,��,2.5,�L
2020/10/01,13:50,0.666,0.945,0.606,1.156,0.832,0.384,0.670,0.630,��,1.7,��
2020/10/01,14:00,0.665,0.945,0.605,1.160,0.831,0.384,0.672,0.633,���k��,2.0,��
2020/10/01,14:10,0.664,0.946,0.606,1.159,0.834,0.383,0.672,0.630,���k��,1.5,��
2020/10/01,14:20,0.665,0.946,0.605,1.160,0.834,0.385,0.671,0.631,�k�k��,1.5,��
2020/10/01,14:30,0.665,0.948,0.605,1.159,0.835,0.385,0.669,0.631,���k��,0.6,��
2020/10/01,14:40,0.665,0.946,0.606,1.161,0.833,0.383,0.672,0.630,���쓌,1.1,�L
2020/10/01,14:50,0.666,0.947,0.608,1.160,0.833,0.385,0.672,0.631,�k��,1.2,��
2020/10/01,15:00,0.664,0.948,0.606,1.161,0.827,0.385,0.671,0.632,�k�k��,1.2,��
2020/10/01,15:10,0.665,0.948,0.607,1.160,0.829,0.384,0.671,0.633,�k��,1.7,��
2020/10/01,15:20,0.664,0.947,0.604,1.161,0.834,0.383,0.671,0.631,�k�k��,2.0,��
2020/10/01,15:30,0.664,0.950,0.605,1.159,0.833,0.384,0.669,0.631,�k��,2.5,��
2020/10/01,15:40,0.665,0.949,0.606,1.160,0.834,0.384,0.669,0.631,�k,2.2,��
2020/10/01,15:50,0.666,0.948,0.605,1.160,0.834,0.384,0.670,0.629,�k�k��,2.3,��
2020/10/01,16:00,0.665,0.950,0.606,1.161,0.832,0.383,0.672,0.631,�k�k��,2.6,��
2020/10/01,16:10,0.665,0.953,0.607,1.161,0.834,0.385,0.672,0.630,�k�k��,2.2,��
2020/10/01,16:20,0.668,0.951,0.606,1.161,0.833,0.385,0.672,0.631,�k�k��,2.0,��
2020/10/01,16:30,0.665,0.952,0.607,1.162,0.836,0.385,0.670,0.631,�k�k��,2.2,��
2020/10/01,16:40,0.665,0.953,0.606,1.158,0.832,0.383,0.671,0.632,�k�k��,1.9,��
2020/10/01,16:50,0.665,0.951,0.607,1.160,0.834,0.385,0.671,0.633,�k�k��,2.3,��
2020/10/01,17:00,0.666,0.954,0.606,1.163,0.834,0.385,0.672,0.632,�k,2.2,��
2020/10/01,17:10,0.667,0.954,0.608,1.160,0.834,0.385,0.672,0.632,�k,2.2,��
2020/10/01,17:20,0.665,0.955,0.609,1.161,0.834,0.385,0.671,0.632,�k�k��,2.3,��
2020/10/01,17:30,0.667,0.956,0.607,1.161,0.835,0.385,0.671,0.632,�k��,2.2,��
2020/10/01,17:40,0.668,0.953,0.608,1.160,0.837,0.386,0.671,0.632,�k�k��,1.7,��
2020/10/01,17:50,0.667,0.952,0.609,1.162,0.837,0.386,0.672,0.632,�k��,1.7,��
2020/10/01,18:00,0.668,0.950,0.607,1.164,0.837,0.386,0.671,0.632,�k�k��,1.2,��
2020/10/01,18:10,0.669,0.954,0.607,1.161,0.837,0.386,0.671,0.632,�k�k��,1.5,��
2020/10/01,18:20,0.667,0.953,0.608,1.160,0.838,0.385,0.671,0.634,�k,1.1,��
2020/10/01,18:30,0.668,0.954,0.608,1.160,0.837,0.385,0.671,0.634,�k�k��,1.5,��
2020/10/01,18:40,0.668,0.955,0.609,1.163,0.836,0.386,0.670,0.632,�k,2.2,��
2020/10/01,18:50,0.667,0.953,0.608,1.162,0.836,0.385,0.670,0.634,�k,1.2,��
2020/10/01,19:00,0.669,0.953,0.607,1.161,0.836,0.386,0.671,0.632,�k�k��,1.1,��
2020/10/01,19:10,0.670,0.954,0.610,1.162,0.836,0.386,0.672,0.633,-,CALM,��
2020/10/01,19:20,0.668,0.953,0.609,1.162,0.838,0.384,0.671,0.632,-,CALM,��
2020/10/01,19:30,0.668,0.953,0.609,1.162,0.836,0.385,0.671,0.633,�k,0.6,��
2020/10/01,19:40,0.667,0.952,0.609,1.161,0.836,0.386,0.671,0.632,�k�k��,1.7,��
2020/10/01,19:50,0.667,0.955,0.608,1.161,0.836,0.385,0.672,0.634,�k�k��,1.5,��
2020/10/01,20:00,0.668,0.951,0.608,1.159,0.836,0.386,0.672,0.634,�k��,1.9,��
2020/10/01,20:10,0.668,0.954,0.609,1.162,0.836,0.385,0.673,0.634,���k��,2.0,��
2020/10/01,20:20,0.664,0.953,0.608,1.162,0.838,0.386,0.671,0.631,���k��,1.2,��
2020/10/01,20:30,0.666,0.953,0.606,1.161,0.836,0.386,0.672,0.633,-,CALM,��
2020/10/01,20:40,0.668,0.954,0.609,1.161,0.835,0.386,0.671,0.636,��,0.6,��
2020/10/01,20:50,0.667,0.953,0.607,1.159,0.835,0.387,0.672,0.633,-,CALM,��
2020/10/01,21:00,0.666,0.952,0.606,1.162,0.836,0.386,0.672,0.633,-,CALM,��
2020/10/01,21:10,0.666,0.952,0.608,1.159,0.836,0.386,0.673,0.633,-,CALM,��
2020/10/01,21:20,0.667,0.951,0.607,1.162,0.836,0.386,0.672,0.633,��,0.8,��
2020/10/01,21:30,0.664,0.953,0.607,1.163,0.837,0.386,0.674,0.632,��,1.7,��
2020/10/01,21:40,0.667,0.952,0.608,1.163,0.836,0.387,0.672,0.632,��,2.3,��
2020/10/01,21:50,0.666,0.952,0.608,1.163,0.837,0.386,0.674,0.634,��,1.7,��
2020/10/01,22:00,0.668,0.954,0.607,1.161,0.838,0.386,0.673,0.631,��,0.6,��
2020/10/01,22:10,0.666,0.953,0.608,1.164,0.838,0.389,0.672,0.635,�k��,0.6,��
2020/10/01,22:20,0.669,0.952,0.608,1.163,0.837,0.386,0.673,0.634,�k��,1.2,��
2020/10/01,22:30,0.667,0.953,0.608,1.163,0.838,0.387,0.673,0.633,��,1.2,��
2020/10/01,22:40,0.668,0.950,0.608,1.160,0.838,0.387,0.673,0.634,���쐼,1.4,��
2020/10/01,22:50,0.667,0.952,0.607,1.163,0.836,0.386,0.674,0.632,���k��,1.1,��
2020/10/01,23:00,0.666,0.953,0.609,1.162,0.838,0.387,0.674,0.633,���k��,1.2,��
2020/10/01,23:10,0.667,0.952,0.610,1.161,0.835,0.386,0.673,0.632,���k��,0.8,��
2020/10/01,23:20,0.664,0.952,0.607,1.163,0.838,0.387,0.672,0.633,��,1.2,��
2020/10/01,23:30,0.666,0.953,0.608,1.165,0.837,0.387,0.673,0.634,���쐼,0.9,��
2020/10/01,23:40,0.668,0.953,0.608,1.162,0.837,0.387,0.674,0.633,�쐼,0.8,��
2020/10/01,23:50,0.666,0.950,0.607,1.160,0.838,0.386,0.672,0.634,-,CALM,��
